{"data":{"norad_id":58755,"epoch":"2026-05-25T03:53:22.867008Z","epoch_age_seconds":64257,"freshness":"FRESH","line1":"1 58755U 23185S   26145.16207022  .00002832  00000+0  16792-3 0  9999","line2":"2 58755  97.5271 212.9603 0013023  31.6506 328.5505 15.12105877130397","mean_motion":15.12105877,"eccentricity":0.0013023,"inclination_deg":97.5271,"raan_deg":212.9603,"arg_perigee_deg":31.6506,"mean_anomaly_deg":328.5505,"bstar":0.00016792,"rev_number":13039,"period_min":95.231426707827,"perigee_km":520.7827019408,"apogee_km":538.77505964391,"semimajor_km":6907.9158807924,"source":"CELESTRAK","updated_at":"2026-05-25T13:38:00.962996Z"}}